This is the latest recevied weather packets stored in our database for station/object OK1TOM-6. If no packets are shown the sender has not sent any weather packets the latest 10 day(s).
| Time | Temp. | Humidity | Pressure | Rain* | Wind** | Luminosity | Snow |
|---|---|---|---|---|---|---|---|
| 1778226356 | 7.78° C | 90% | 1020.1 hPa | 0 mm | - | - | - |
| 1778225753 | 7.78° C | 89% | 1020 hPa | 0 mm | - | - | - |
| 1778225149 | 7.22° C | 91% | 1019.9 hPa | 0 mm | - | - | - |
| 1778224546 | 7.22° C | 92% | 1020 hPa | 0 mm | - | - | - |
| 1778223943 | 7.22° C | 92% | 1019.8 hPa | 0 mm | - | - | - |
| 1778223339 | 7.22° C | 93% | 1019.7 hPa | 0 mm | - | - | - |
| 1778222736 | 6.67° C | 93% | 1019.8 hPa | 0 mm | - | - | - |
| 1778222132 | 6.67° C | 92% | 1019.6 hPa | 0 mm | - | - | - |
| 1778221529 | 6.67° C | 94% | 1019.5 hPa | 0 mm | - | - | - |
| 1778220925 | 6.67° C | 94% | 1019.4 hPa | 0 mm | - | - | - |
| 1778220322 | 6.67° C | 94% | 1019.2 hPa | 0 mm | - | - | - |
| 1778219719 | 6.11° C | 94% | 1019.2 hPa | 0 mm | - | - | - |
| 1778219115 | 6.11° C | 96% | 1019.2 hPa | 0 mm | - | - | - |
| 1778218572 | 6.11° C | 96% | 1019.1 hPa | 0 mm | - | - | - |
| 1778217969 | 6.11° C | 97% | 1018.9 hPa | 0 mm | - | - | - |
| 1778217365 | 6.11° C | 98% | 1019 hPa | 0 mm | - | - | - |
| 1778216762 | 6.11° C | 98% | 1018.9 hPa | 0 mm | - | - | - |
| 1778216158 | 6.11° C | 98% | 1018.8 hPa | 0 mm | - | - | - |
| 1778215555 | 6.11° C | 98% | 1018.8 hPa | 0 mm | - | - | - |
| 1778214951 | 5.56° C | 98% | 1018.7 hPa | 0 mm | - | - | - |
| 1778214348 | 5.56° C | 98% | 1018.6 hPa | 0 mm | - | - | - |
| 1778213744 | 5.56° C | 98% | 1018.6 hPa | 0 mm | - | - | - |
| 1778213141 | 6.11° C | 98% | 1018.4 hPa | 0 mm | - | - | - |
| 1778212538 | 5.56° C | 98% | 1018.5 hPa | 0 mm | - | - | - |
| 1778211934 | 5.56° C | 98% | 1018.4 hPa | 0 mm | - | - | - |
* Rain latest hour (hover to see other rain measurements)
** Current wind speed in m/s (hover to see current wind gust speed)